Tracking 22124 objects as of 23-Jan-2021
HD Live streaming from Space Station
objects crossing your sky now

CZ-2F DEB


CZ-2F DEB is no longer on orbit


NORAD ID: 46392
Int'l Code: 2020-063D
Perigee: N/A
Apogee: N/A
Inclination: N/A
Period: N/A
Semi major axis: N/A
RCS: N/A
Launch date: September 4, 2020
Source: People's Republic of China (PRC)
Launch site: Jiuquan Satellite Launch Center, China (JSC)
Decay date: 2021-01-12

Note: This is SATELLITE DEBRIS
aabbcc
Your satellite tracking list
Your tracking list is empty




NASA's NSSDC Master Catalog

Two Line Element Set (TLE):
1 46392U 20063D   21011.25350325  .04062825  11703-4  23387-2 0  9993
2 46392  49.8637 109.1691 0017826 340.3831  20.7947 16.17740593 20178
Source of the keplerian elements: AFSPC